Total_Precipitation_Accumulation
0.01 0.01 0.01 0.02 0.06 0.16 0.22 0.17 0.19 0.27 0.30 0.30 0.35 0.38 0.43 0.54 0.95 1.77 1.04 0.54 0.36 0.27 0.30 0.17 0.18 0.18 0.21 0.31 0.34 0.32 0.29 0.28 0.29 0.30 0.31 0.30 0.26 0.28 0.30 0.31 0.37 0.47 0.51 0.49 0.45 0.46 0.52 0.59 0.62
0.02 0.02 0.02 0.04 0.09 0.23 0.26 0.23 0.28 0.31 0.38 0.36 0.43 0.45 0.46 0.47 0.46 0.52 0.53 0.51 0.37 0.26 0.27 0.20 0.21 0.24 0.26 0.31 0.34 0.39 0.36 0.34 0.33 0.32 0.30 0.30 0.30 0.33 0.36 0.36 0.40 0.47 0.52 0.56 0.56 0.53 0.53 0.55 0.56
0.02 0.02 0.04 0.06 0.09 0.20 0.27 0.25 0.32 0.34 0.36 0.44 0.58 0.69 0.70 0.64 0.60 0.56 0.51 0.40 0.32 0.25 0.24 0.27 0.30 0.30 0.33 0.33 0.34 0.38 0.39 0.39 0.41 0.41 0.35 0.36 0.37 0.37 0.38 0.42 0.45 0.49 0.54 0.61 0.66 0.66 0.58 0.57 0.59
0.02 0.03 0.05 0.08 0.10 0.14 0.25 0.34 0.39 0.43 0.41 0.40 0.51 0.88 0.83 0.62 0.63 0.64 0.48 0.38 0.36 0.30 0.24 0.29 0.37 0.35 0.35 0.37 0.37 0.35 0.37 0.40 0.44 0.47 0.46 0.45 0.44 0.43 0.43 0.47 0.51 0.55 0.58 0.64 0.70 0.72 0.67 0.64 0.64
0.02 0.03 0.06 0.09 0.11 0.15 0.24 0.37 0.39 0.43 0.50 0.50 0.58 0.94 0.93 0.76 0.74 0.85 0.74 0.55 0.52 0.47 0.41 0.34 0.36 0.35 0.37 0.40 0.44 0.46 0.43 0.43 0.47 0.50 0.50 0.51 0.50 0.47 0.50 0.53 0.55 0.60 0.63 0.63 0.60 0.61 0.59 0.63 0.69
0.03 0.03 0.08 0.08 0.10 0.19 0.27 0.37 0.38 0.43 0.52 0.63 0.77 1.15 1.42 1.27 1.15 1.21 1.18 0.83 0.71 0.63 0.56 0.51 0.44 0.36 0.41 0.49 0.51 0.56 0.59 0.56 0.55 0.56 0.57 0.58 0.55 0.53 0.56 0.59 0.63 0.70 0.77 0.77 0.68 0.63 0.61 0.61 0.64
0.03 0.05 0.09 0.08 0.12 0.25 0.31 0.39 0.42 0.51 0.71 0.85 1.01 1.47 1.65 1.58 1.52 1.33 1.40 1.19 0.86 0.81 0.80 0.77 0.58 0.52 0.57 0.64 0.63 0.67 0.70 0.67 0.65 0.67 0.71 0.70 0.68 0.67 0.66 0.67 0.71 0.77 0.81 0.82 0.78 0.77 0.75 0.73 0.71
0.04 0.07 0.06 0.08 0.14 0.29 0.37 0.42 0.49 0.59 0.84 1.01 1.10 1.56 1.73 1.65 1.45 1.37 1.39 1.45 1.21 1.15 1.13 1.05 1.00 0.94 0.84 0.86 0.91 0.87 0.87 0.81 0.73 0.70 0.76 0.76 0.72 0.69 0.76 0.74 0.80 0.85 0.85 0.85 0.91 1.02 1.01 0.95 0.85
0.03 0.10 0.08 0.07 0.13 0.28 0.42 0.51 0.59 0.62 0.83 1.04 0.96 1.11 1.52 1.35 1.45 1.72 1.62 1.66 1.58 1.50 1.45 1.26 1.28 1.25 1.13 1.13 1.05 1.10 1.07 1.00 0.91 0.84 0.85 0.81 0.87 0.97 0.98 0.93 1.06 1.11 1.16 1.23 1.25 1.25 1.23 1.23 1.10
0.02 0.07 0.07 0.06 0.10 0.22 0.38 0.54 0.68 0.74 0.81 0.99 1.06 1.06 1.28 1.40 1.47 1.70 1.99 1.89 1.86 1.67 1.58 1.49 1.37 1.29 1.27 1.21 1.28 1.36 1.29 1.27 1.11 1.17 1.15 1.16 1.49 1.65 1.43 1.54 1.59 1.56 1.58 1.56 1.53 1.48 1.48 1.38 1.12
0.02 0.05 0.06 0.08 0.12 0.22 0.35 0.47 0.54 0.67 0.84 0.96 1.13 1.21 1.29 1.50 1.71 1.81 2.20 2.18 2.10 2.00 1.79 1.83 1.70 1.60 1.76 1.82 1.73 1.70 1.70 1.74 1.55 1.64 1.71 1.78 1.96 1.97 1.94 2.05 1.91 1.87 1.81 1.79 1.90 1.68 1.41 1.35 1.29
0.03 0.05 0.07 0.13 0.16 0.23 0.30 0.36 0.55 0.75 1.14 1.16 1.46 1.72 1.76 1.68 1.95 2.04 2.37 2.38 2.46 2.63 2.40 2.26 2.21 2.13 2.26 2.52 2.35 2.05 1.90 1.93 1.91 2.04 1.98 2.27 2.38 2.37 2.32 2.39 2.31 2.27 2.23 2.30 2.19 2.05 1.82 1.71 1.57
0.04 0.06 0.08 0.12 0.20 0.28 0.34 0.43 0.60 0.89 1.06 1.16 1.56 1.97 2.06 1.90 1.85 2.02 2.64 2.51 2.55 2.80 2.85 2.62 2.53 2.52 2.73 2.94 2.83 2.57 2.48 2.26 2.17 2.37 2.36 2.52 2.60 2.62 2.70 2.61 2.58 2.40 2.37 2.38 2.28 2.18 2.19 2.11 1.90
0.07 0.08 0.11 0.12 0.18 0.28 0.38 0.48 0.63 0.85 0.79 0.91 1.28 1.58 1.69 1.85 1.93 2.07 2.40 2.51 2.49 2.64 2.83 3.00 2.95 2.89 2.79 2.91 2.93 2.71 2.47 2.56 2.45 2.43 2.48 2.50 2.64 2.87 2.94 2.89 2.81 2.72 2.65 2.73 2.56 2.38 2.58 2.43 2.30
0.05 0.08 0.13 0.14 0.18 0.29 0.37 0.55 0.77 0.99 0.94 1.01 1.21 1.33 1.56 1.84 2.16 2.35 2.48 2.48 2.51 2.55 2.64 2.83 2.93 3.04 2.99 2.98 3.01 2.84 2.64 2.62 2.71 2.78 2.90 2.76 2.71 2.97 3.06 3.19 3.10 3.03 2.99 3.03 2.97 2.88 2.96 2.69 2.53
0.07 0.11 0.20 0.23 0.20 0.23 0.37 0.75 1.00 1.05 1.10 1.15 1.19 1.28 1.46 1.78 2.09 2.21 2.17 2.16 2.14 2.20 2.43 2.67 2.84 2.97 3.24 3.34 3.42 3.20 3.23 3.23 3.16 3.01 2.99 2.87 2.88 3.11 3.41 3.48 3.41 3.42 3.33 3.43 3.53 3.44 3.24 3.07 2.88
0.09 0.14 0.21 0.28 0.23 0.22 0.40 0.80 1.03 0.99 1.13 1.21 1.20 1.19 1.28 1.50 1.75 1.90 1.94 1.92 1.91 1.92 2.35 2.69 2.98 3.30 3.54 3.77 3.94 3.84 3.92 3.79 3.65 3.56 3.42 3.45 3.56 3.60 3.79 3.89 3.89 3.88 3.90 3.89 3.72 3.87 3.65 3.55 3.35
0.16 0.17 0.21 0.22 0.22 0.24 0.39 0.65 0.84 0.96 1.09 1.20 1.20 1.17 1.14 1.33 1.57 1.77 1.92 2.05 1.97 2.06 2.41 2.76 3.06 3.56 4.04 4.13 4.25 4.25 4.44 4.40 4.35 4.43 4.27 4.07 4.14 4.24 4.40 4.31 4.33 4.36 4.42 4.27 4.22 4.26 4.03 3.77 3.70
0.16 0.18 0.24 0.21 0.20 0.27 0.37 0.56 0.81 0.94 1.13 1.29 1.27 1.25 1.30 1.36 1.63 1.85 2.05 2.26 2.49 2.67 2.81 3.03 3.27 3.59 3.82 4.18 4.49 4.69 4.84 4.98 5.00 5.01 5.04 5.03 5.04 5.14 5.19 4.97 4.94 4.85 4.72 4.52 4.45 4.31 4.08 3.82 3.82
0.12 0.16 0.21 0.23 0.23 0.26 0.38 0.58 0.82 0.93 1.07 1.27 1.34 1.40 1.38 1.45 1.61 1.97 2.31 2.76 2.98 3.07 3.11 3.32 3.64 3.95 4.11 4.48 4.98 5.41 5.58 5.63 5.63 5.61 5.76 5.82 5.83 5.95 5.97 5.94 5.72 5.56 5.30 4.82 4.46 4.31 4.08 3.71 3.83
0.09 0.11 0.14 0.22 0.26 0.33 0.50 0.87 1.10 1.10 1.24 1.37 1.39 1.54 1.55 1.59 1.86 2.11 2.51 2.84 2.98 3.06 3.17 3.34 3.79 4.22 4.65 5.12 5.69 6.13 6.35 6.35 6.19 5.90 6.00 6.12 6.00 6.07 6.20 6.15 5.95 5.65 5.14 4.60 4.43 4.37 4.20 3.94 3.88
0.08 0.09 0.10 0.16 0.26 0.41 0.47 1.03 1.44 1.53 1.57 1.48 1.48 1.57 1.56 1.59 1.81 2.11 2.36 2.67 2.82 2.93 3.15 3.36 3.76 4.40 4.87 5.23 5.88 6.49 6.75 6.93 6.99 6.77 6.46 6.24 5.97 5.84 5.77 5.60 5.19 4.82 4.48 4.20 4.07 4.12 4.00 3.98 3.80
0.07 0.07 0.11 0.15 0.20 0.35 0.39 0.84 1.59 1.75 1.88 1.71 1.64 1.65 1.49 1.44 1.60 1.94 2.09 2.38 2.71 2.81 2.90 3.15 3.71 4.30 4.96 5.56 6.08 6.63 7.07 7.30 7.25 6.82 6.37 5.85 5.46 5.02 4.64 4.33 4.11 4.03 3.85 3.65 3.53 3.53 3.45 3.30 3.22
0.07 0.08 0.16 0.20 0.31 0.55 0.51 0.79 1.65 2.00 2.16 2.19 1.87 1.66 1.49 1.38 1.45 1.60 1.77 2.01 2.36 2.46 2.66 2.97 3.43 4.14 4.83 5.41 5.97 6.43 6.81 6.87 6.56 6.01 5.47 5.12 4.74 4.25 3.76 3.50 3.30 3.18 3.02 2.82 2.71 2.70 2.72 2.80 2.87
0.07 0.19 0.47 0.66 0.77 0.79 0.61 0.89 1.68 1.88 1.75 1.72 1.80 1.85 1.63 1.35 1.33 1.52 1.62 1.79 2.02 2.19 2.45 2.80 3.35 4.00 4.42 4.88 5.37 5.69 5.90 5.98 5.89 5.53 5.06 4.72 4.30 3.86 3.40 2.96 2.75 2.52 2.32 2.21 2.20 2.19 2.18 2.29 2.41
0.08 0.22 0.62 0.88 0.91 0.92 0.94 1.36 1.96 1.77 1.46 1.40 1.52 1.61 1.49 1.40 1.43 1.63 1.76 1.89 2.03 2.15 2.32 2.68 3.12 3.57 3.80 4.01 4.41 4.71 4.82 4.87 4.76 4.50 4.12 3.82 3.53 3.25 2.94 2.50 2.15 1.93 1.79 1.69 1.78 1.81 1.84 1.90 2.00
0.12 0.18 0.32 0.46 0.56 0.89 1.36 1.87 2.39 2.25 1.67 1.43 1.47 1.44 1.40 1.40 1.43 1.63 1.80 1.91 2.01 2.03 2.20 2.39 2.65 2.88 3.10 3.27 3.47 3.62 3.63 3.55 3.47 3.24 2.97 2.77 2.57 2.31 2.16 1.97 1.76 1.63 1.59 1.59 1.62 1.61 1.60 1.69 1.79
0.15 0.21 0.29 0.52 0.84 1.21 1.52 2.11 2.85 2.76 2.15 1.72 1.63 1.57 1.47 1.40 1.43 1.59 1.67 1.74 1.78 1.72 1.82 1.95 2.18 2.31 2.47 2.57 2.61 2.54 2.54 2.50 2.36 2.19 2.09 1.94 1.74 1.61 1.58 1.55 1.54 1.48 1.42 1.47 1.55 1.49 1.47 1.58 1.60
0.18 0.23 0.34 0.50 0.64 1.17 1.73 2.47 2.70 2.83 2.57 2.18 1.75 1.52 1.42 1.37 1.34 1.38 1.43 1.47 1.49 1.42 1.43 1.54 1.71 1.92 2.03 2.03 2.06 2.03 1.96 1.80 1.69 1.58 1.53 1.45 1.35 1.33 1.33 1.35 1.36 1.35 1.33 1.34 1.36 1.32 1.33 1.39 1.54
0.17 0.24 0.38 0.67 0.72 0.88 1.46 2.56 2.63 2.91 2.77 2.41 2.01 1.67 1.55 1.47 1.34 1.27 1.27 1.27 1.26 1.22 1.20 1.27 1.35 1.45 1.49 1.56 1.58 1.58 1.51 1.42 1.36 1.30 1.26 1.27 1.24 1.21 1.24 1.24 1.24 1.28 1.34 1.37 1.31 1.22 1.21 1.30 1.42